Twentynine Palms, CA

11:14 AM PDT on June 25, 2017 (GMT -0700)
Twentynine Palms Expeditionary Air Field

Weather History for KNXP - October, 2014

Change the Weather History Date:

Saturday, October 18, 2014

  Actual Average Record
Temperature  
Mean Temperature 72 °F -  
Max Temperature 84 °F 79 °F 93 °F (2003)
Min Temperature 62 °F 53 °F 48 °F (1998)
Cooling Degree Days 7    
Growing Degree Days 22 (Base 50)    
Moisture  
Dew Point 45 °F    
Average Humidity 38    
Maximum Humidity 60    
Minimum Humidity 23    
Precipitation  
Precipitation 0.00 in - - ()
Sea Level Pressure  
Sea Level Pressure 29.85 in    
Wind  
Wind Speed 8 mph (WNW)    
Max Wind Speed 14 mph    
Max Gust Speed 18 mph    
Visibility 10 miles    
Events      
Averages and records for this station are not official NWS values.
T = Trace of Precipitation, MM = Missing Value Source: NWS Daily Summary

Daily Weather History Graph

Daily Weather History Graph

Search for Another Location

Airport or City:

Trip Planner

Search our weather history database for the weather conditions in past years. The results will help you decide how hot, cold, wet, or windy it might be!

Date:

Astronomy

Oct. 18, 2014 Rise Set
Actual Time 6:52 AM PDT 6:06 PM PDT
Civil Twilight 6:27 AM PDT 6:31 PM PDT
Nautical Twilight 5:57 AM PDT 7:01 PM PDT
Astronomical Twilight 5:28 AM PDT 7:30 PM PDT
Moon 2:07 AM PDT (10/18) 3:17 PM PDT (10/18)
Length of Visible Light 12h 04m
Length of Day
11h 14m
Waning Crescent, 23% of the Moon is Illuminated
Oct 18
Waning Crescent
Oct 23
New
Oct 30
First Quarter
Nov 6
Full
Nov 14
Last Quarter

Hourly Weather History & Observations

Time (PDT) Temp. Dew Point Humidity Pressure Visibility Wind Dir Wind Speed Gust Speed Precip Events Conditions
3:56 AM 64.9 °F 46.9 °F 52% 29.85 in 10.0 mi WNW 8.1 mph - N/A   Clear
4:56 AM 64.0 °F 48.9 °F 58% 29.86 in 10.0 mi NW 12.7 mph - N/A   Clear
5:56 AM 63.0 °F 48.9 °F 60% 29.88 in 10.0 mi WNW 13.8 mph 18.4 mph N/A   Clear
6:56 AM 62.1 °F 48.0 °F 60% 29.89 in 10.0 mi NW 8.1 mph - N/A   Clear
7:56 AM 64.0 °F 48.0 °F 56% 29.91 in 10.0 mi WNW 12.7 mph - N/A   Clear
8:56 AM 66.9 °F 46.9 °F 49% 29.91 in 10.0 mi NW 11.5 mph - N/A   Clear
9:56 AM 71.1 °F 45.0 °F 39% 29.91 in 10.0 mi NW 10.4 mph - N/A   Clear
10:56 AM 75.0 °F 41.0 °F 29% 29.90 in 10.0 mi NW 3.5 mph - N/A   Clear
11:56 AM 78.1 °F 39.9 °F 25% 29.87 in 10.0 mi NW 4.6 mph - N/A   Clear
12:56 PM 82.0 °F 41.0 °F 23% 29.85 in 10.0 mi Variable 3.5 mph - N/A   Clear
1:56 PM 82.0 °F 43.0 °F 25% 29.82 in 10.0 mi Calm Calm - N/A   Scattered Clouds
2:56 PM 82.0 °F 45.0 °F 27% 29.81 in 10.0 mi Calm Calm - N/A   Scattered Clouds
3:56 PM 82.9 °F 45.0 °F 26% 29.80 in 10.0 mi SSE 5.8 mph - N/A   Scattered Clouds
4:56 PM 82.0 °F 45.0 °F 27% 29.80 in 10.0 mi SE 8.1 mph - N/A   Scattered Clouds
5:56 PM 81.0 °F 44.1 °F 27% 29.80 in 10.0 mi SSE 4.6 mph - N/A   Partly Cloudy
6:56 PM 79.0 °F 43.0 °F 28% 29.82 in 10.0 mi Calm Calm - N/A   Mostly Cloudy
7:56 PM 73.9 °F 43.0 °F 33% 29.83 in 10.0 mi SW 6.9 mph - N/A   Partly Cloudy
8:56 PM 73.0 °F 44.1 °F 35% 29.84 in 10.0 mi Variable 3.5 mph - N/A   Partly Cloudy
9:56 PM 70.0 °F 43.0 °F 38% 29.85 in 10.0 mi West 6.9 mph - N/A   Clear
10:56 PM 70.0 °F 43.0 °F 38% 29.84 in 10.0 mi West 10.4 mph - N/A   Clear
11:56 PM 68.0 °F 43.0 °F 40% 29.83 in 10.0 mi Calm Calm - N/A   Clear